DW3039 Karjalohja FI current weather conditions

sailwx.info

Wind from 193

Air temperature 17.8° C
Dewpoint 14.8° C

Last reported at 2014-Aug-01 21:44 UTC.
Time now 2014-Aug-01 22:41 UTC

Location: N 60°16' E 023°41'.
View on Google Maps.

See reports from other nearby stations

  
Tides and Currents Weather Stations Pressure Air Temp Water Temp Dewpoint Dewpoint Depression Visibility Wind Speed Wind Dir Waves Ship Positions
date/time (UTC)wind fromknots sea level pressurealtimeterstation pressurevisibilityair tempwater tempwave heightnotes
2014-Aug-01 21:44 193 17.8
2014-Aug-01 21:33 193 17.8
2014-Aug-01 21:23 196 17.8
2014-Aug-01 21:13 196 18.3
2014-Aug-01 21:03 196 18.3
2014-Aug-01 20:53 196 18.3
2014-Aug-01 20:43 173 18.3
2014-Aug-01 20:33 173 18.3
2014-Aug-01 20:23 173 18.3
2014-Aug-01 20:13 173 18.9
2014-Aug-01 20:03 173 18.9
2014-Aug-01 19:53 173 18.9
2014-Aug-01 19:43 173 19.4
2014-Aug-01 19:33 173 19.4
2014-Aug-01 19:23 173 20.0
2014-Aug-01 19:13 173 20.0
2014-Aug-01 19:03 189 20.0
2014-Aug-01 18:53 218 20.0
2014-Aug-01 18:43 187 20.0
2014-Aug-01 18:33 211 2 gusting 5 20.6
2014-Aug-01 18:23 213 2 gusting 7 20.6
2014-Aug-01 18:13 206 2 gusting 6 20.6
2014-Aug-01 18:03 217 3 gusting 8 20.6
2014-Aug-01 17:53 219 4 gusting 8 20.6
2014-Aug-01 17:43 224 2 gusting 9 21.1
2014-Aug-01 17:33 231 4 gusting 8 21.1
2014-Aug-01 17:22 226 4 gusting 10 21.1
2014-Aug-01 17:12 206 2 gusting 11 21.1
2014-Aug-01 17:02 199 4 gusting 10 21.1
2014-Aug-01 16:52 193 4 gusting 11 21.7
2014-Aug-01 16:42 195 2 gusting 12 21.7
2014-Aug-01 16:32 205 6 gusting 12 21.7
2014-Aug-01 16:22 219 3 gusting 10 21.7
2014-Aug-01 16:12 210 4 gusting 13 21.7
2014-Aug-01 16:02 190 4 gusting 11 21.7
2014-Aug-01 15:52 211 6 gusting 13 21.7
2014-Aug-01 15:42 194 6 gusting 13 21.7
2014-Aug-01 15:32 206 5 gusting 12 22.2
2014-Aug-01 15:22 198 5 gusting 13 22.2
2014-Aug-01 15:12 206 2 gusting 9 22.2
2014-Aug-01 15:02 223 4 gusting 13 22.2
2014-Aug-01 14:52 211 6 gusting 13 22.2
2014-Aug-01 14:42 210 4 gusting 13 22.8
2014-Aug-01 14:32 220 6 gusting 18 22.8
2014-Aug-01 14:22 205 6 gusting 13 22.8
2014-Aug-01 14:12 218 5 gusting 12 22.8
2014-Aug-01 14:02 214 3 gusting 11 22.8
2014-Aug-01 13:52 198 4 gusting 9 22.8
2014-Aug-01 13:42 202 1 gusting 9 23.3
2014-Aug-01 13:32 227 6 gusting 11 23.3
2014-Aug-01 13:21 218 4 gusting 16 23.3
2014-Aug-01 13:11 199 4 gusting 16 23.3
2014-Aug-01 13:01 230 3 gusting 16 23.3
2014-Aug-01 12:51 199 5 gusting 15 23.3
2014-Aug-01 12:41 192 5 gusting 12 23.3
2014-Aug-01 12:31 198 7 gusting 12 23.3
2014-Aug-01 12:21 204 5 gusting 16 23.3
2014-Aug-01 12:11 208 3 gusting 8 23.3
2014-Aug-01 12:01 212 5 gusting 14 23.3
2014-Aug-01 11:51 206 6 gusting 13 22.8
2014-Aug-01 11:41 226 6 gusting 13 22.8
2014-Aug-01 11:31 218 6 gusting 13 22.8
2014-Aug-01 11:21 196 5 gusting 17 22.8
2014-Aug-01 11:11 194 6 gusting 15 22.8
2014-Aug-01 11:01 205 5 gusting 12 23.3
2014-Aug-01 10:51 210 7 gusting 16 23.3
2014-Aug-01 10:41 200 5 gusting 13 23.9
2014-Aug-01 10:31 221 7 gusting 13 23.9
2014-Aug-01 10:21 197 6 gusting 14 23.9
2014-Aug-01 10:11 212 6 gusting 14 23.9
2014-Aug-01 10:01 206 4 gusting 13 23.9
2014-Aug-01 09:51 220 5 gusting 15 23.9
2014-Aug-01 09:41 213 7 gusting 16 23.9
2014-Aug-01 09:31 193 5 gusting 11 23.9
2014-Aug-01 09:21 228 6 gusting 18 23.9
2014-Aug-01 09:11 210 6 gusting 14 23.3
2014-Aug-01 09:01 193 7 gusting 16 22.8
2014-Aug-01 08:51 234 5 gusting 17 22.8
2014-Aug-01 08:41 210 6 gusting 9 22.2
2014-Aug-01 08:30 209 0 gusting 9 22.8
2014-Aug-01 08:20 216 3 gusting 13 23.3
2014-Aug-01 08:10 210 4 gusting 10 22.8
2014-Aug-01 08:00 208 7 gusting 13 22.8
2014-Aug-01 07:50 220 6 gusting 12 22.8
2014-Aug-01 07:40 183 1 gusting 9 22.8
2014-Aug-01 07:30 192 4 gusting 11 22.2
2014-Aug-01 07:20 197 3 gusting 12 21.7
2014-Aug-01 07:10 184 2 gusting 8 21.1
2014-Aug-01 07:00 187 0 gusting 6 20.6
2014-Aug-01 06:50 212 0 gusting 5 20.6
2014-Aug-01 06:40 213 1 gusting 5 20.6
2014-Aug-01 06:30 230 4 gusting 12 21.1
2014-Aug-01 06:20 206 2 gusting 7 20.6
2014-Aug-01 06:10 179 0 gusting 7 20.6
2014-Aug-01 06:00 209 3 gusting 6 20.6
2014-Aug-01 05:50 203 2 gusting 6 20.6
2014-Aug-01 05:40 207 2 gusting 4 20.6
2014-Aug-01 05:30 166 20.6
2014-Aug-01 05:20 214 20.0
2014-Aug-01 05:10 214 20.0
2014-Aug-01 04:59 221 0 gusting 3 20.0
2014-Aug-01 04:49 145 20.0
2014-Aug-01 04:39 181 20.0
2014-Aug-01 04:29 145 20.0
2014-Aug-01 04:19 162 19.4
2014-Aug-01 04:09 172 19.4
2014-Aug-01 03:59 205 0 gusting 5 18.9
2014-Aug-01 03:49 209 3 gusting 6 18.9
2014-Aug-01 03:39 181 0 gusting 4 18.3
2014-Aug-01 03:29 194 2 gusting 5 18.3
2014-Aug-01 03:19 180 18.3
2014-Aug-01 03:09 213 0 gusting 3 18.3
2014-Aug-01 02:59 179 18.3
2014-Aug-01 02:49 179 17.8
2014-Aug-01 02:39 166 17.8
2014-Aug-01 02:29 166 17.8
2014-Aug-01 02:19 166 17.8
2014-Aug-01 02:09 166 17.8
2014-Aug-01 01:59 166 17.8
2014-Aug-01 01:49 166 17.8
2014-Aug-01 01:39 166 17.8
2014-Aug-01 01:29 166 17.8
2014-Aug-01 01:19 166 17.8
2014-Aug-01 01:09 199 17.8
2014-Aug-01 00:59 199 17.8
2014-Aug-01 00:49 199 17.8
2014-Aug-01 00:39 199 18.3
2014-Aug-01 00:28 199 18.3
2014-Aug-01 00:18 218 18.3
2014-Aug-01 00:08 194 18.3
2014-Jul-31 23:58 194 18.3
2014-Jul-31 23:48 194 18.3
2014-Jul-31 23:38 194 18.3
2014-Jul-31 23:28 165 18.3
2014-Jul-31 23:18 207 1 gusting 3 18.3
2014-Jul-31 23:08 180 18.3
2014-Jul-31 22:58 210 0 gusting 6 18.3
2014-Jul-31 22:48 180 0 gusting 2 18.3
2014-Jul-31 22:38 199 0 gusting 4 18.3
2014-Jul-31 22:28 238 18.3
2014-Jul-31 22:18 182 18.3
2014-Jul-31 22:08 202 0 gusting 3 18.3
2014-Jul-31 21:58 197 18.9
2014-Jul-31 21:48 197 18.9
2014-Jul-31 21:38 193 0 gusting 2 18.9
2014-Jul-31 21:28 183 18.9
2014-Jul-31 21:18 162 18.9
2014-Jul-31 21:08 202 0 gusting 4 18.9
2014-Jul-31 20:58 202 18.9
2014-Jul-31 20:48 191 18.9
2014-Jul-31 20:38 191 19.4
2014-Jul-31 20:27 191 19.4
2014-Jul-31 20:17 191 19.4
2014-Jul-31 20:07 191 19.4
2014-Jul-31 19:57 182 0 gusting 5 19.4
2014-Jul-31 19:47 187 19.4
2014-Jul-31 19:37 202 1 gusting 5 20.0
2014-Jul-31 19:27 209 0 gusting 4 20.0
2014-Jul-31 19:17 183 20.0
2014-Jul-31 19:07 205 0 gusting 3 20.6
2014-Jul-31 18:57 206 20.6
2014-Jul-31 18:47 213 0 gusting 5 20.6
2014-Jul-31 18:37 210 2 gusting 7 20.6
2014-Jul-31 18:27 200 0 gusting 5 21.1
2014-Jul-31 18:17 211 2 gusting 6 21.1
2014-Jul-31 18:07 213 3 gusting 8 21.1
2014-Jul-31 17:57 211 1 gusting 7 21.1
2014-Jul-31 17:47 206 3 gusting 8 21.7
2014-Jul-31 17:37 222 3 gusting 8 21.7
2014-Jul-31 17:27 189 1 gusting 12 21.7
2014-Jul-31 17:17 209 1 gusting 10 21.7
2014-Jul-31 17:07 210 5 gusting 8 21.7
2014-Jul-31 16:56 216 4 gusting 10 21.7
2014-Jul-31 16:46 222 3 gusting 13 22.2
2014-Jul-31 16:36 229 4 gusting 8 22.2
2014-Jul-31 16:26 216 3 gusting 7 22.2
2014-Jul-31 16:16 236 2 gusting 9 22.2
2014-Jul-31 16:06 223 4 gusting 10 22.2
2014-Jul-31 15:56 209 2 gusting 10 22.2
2014-Jul-31 15:46 209 6 gusting 12 22.8
2014-Jul-31 15:36 213 6 gusting 12 22.8
2014-Jul-31 15:26 229 3 gusting 8 22.8
2014-Jul-31 15:16 209 5 gusting 12 23.3
2014-Jul-31 15:06 227 6 gusting 12 23.3
2014-Jul-31 14:56 211 3 gusting 10 23.3
2014-Jul-31 14:46 217 3 gusting 13 23.3
2014-Jul-31 14:36 207 6 gusting 12 23.3
2014-Jul-31 14:26 210 3 gusting 11 23.3
2014-Jul-31 14:16 220 3 gusting 9 23.3
2014-Jul-31 14:06 208 4 gusting 13 23.3
2014-Jul-31 13:56 202 5 gusting 13 23.3
2014-Jul-31 13:46 196 5 gusting 13 23.3
2014-Jul-31 13:36 208 5 gusting 10 23.3
2014-Jul-31 13:26 225 6 gusting 13 23.3
2014-Jul-31 13:15 203 23.3
2014-Jul-31 13:05 197 4 gusting 10 23.3
2014-Jul-31 12:55 213 4 gusting 10 23.3
2014-Jul-31 12:45 206 1 gusting 6 22.8
2014-Jul-31 12:35 175 0 gusting 7 22.8
2014-Jul-31 12:25 192 3 gusting 9 22.8
2014-Jul-31 12:15 206 3 gusting 8 22.8
2014-Jul-31 12:05 195 3 gusting 9 22.2
2014-Jul-31 11:55 207 3 gusting 9 22.2
2014-Jul-31 11:45 203 4 gusting 12 21.7
2014-Jul-31 11:35 193 5 gusting 10 22.2
2014-Jul-31 11:25 188 2 gusting 7 22.2
2014-Jul-31 11:15 161 22.2
2014-Jul-31 11:05 204 2 gusting 7 22.2
2014-Jul-31 10:55 192 0 gusting 6 22.8
2014-Jul-31 10:45 197 0 gusting 8 23.3
2014-Jul-31 10:35 193 2 gusting 6 23.9
2014-Jul-31 10:25 203 0 gusting 11 24.4
2014-Jul-31 10:15 189 3 gusting 12 25.6
2014-Jul-31 10:05 219 4 gusting 8 25.6
2014-Jul-31 09:55 210 7 gusting 15 26.1
2014-Jul-31 09:45 204 6 gusting 17 25.6
2014-Jul-31 09:35 182 3 gusting 13 25.6
2014-Jul-31 09:24 206 6 gusting 13 26.1
2014-Jul-31 09:14 198 6 gusting 15 26.1
2014-Jul-31 09:04 189 6 gusting 11 26.7
2014-Jul-31 08:54 190 2 gusting 9 26.1
2014-Jul-31 08:44 176 2 gusting 10 26.1
2014-Jul-31 08:34 165 4 gusting 9 26.1
2014-Jul-31 08:24 142 5 gusting 12 25.6
2014-Jul-31 08:14 166 3 gusting 7 25.6
2014-Jul-31 08:04 194 4 gusting 7 25.0
2014-Jul-31 07:54 141 3 gusting 10 25.0
2014-Jul-31 07:44 128 2 gusting 12 24.4
2014-Jul-31 07:34 169 1 gusting 7 24.4
2014-Jul-31 07:24 128 4 gusting 8 24.4
2014-Jul-31 07:14 146 1 gusting 7 23.9
2014-Jul-31 07:04 134 2 gusting 7 23.3
2014-Jul-31 06:54 138 2 gusting 6 23.3
2014-Jul-31 06:44 157 1 gusting 6 23.3
2014-Jul-31 06:34 195 2 gusting 7 23.3
2014-Jul-31 06:24 192 3 gusting 6 22.8
2014-Jul-31 06:14 141 2 gusting 8 22.8
2014-Jul-31 06:04 108 2 gusting 5 22.8
2014-Jul-31 05:53 141 1 gusting 5 22.2
2014-Jul-31 04:43 142 0 gusting 4 21.7
2014-Jul-31 04:33 136 0 gusting 5 21.7
2014-Jul-31 04:23 138 2 gusting 5 21.1
2014-Jul-31 04:13 108 0 gusting 3 21.1
2014-Jul-31 04:03 115 20.6
2014-Jul-31 03:53 115 20.6
2014-Jul-31 03:43 128 20.6
2014-Jul-31 03:33 067 20.0
2014-Jul-31 03:23 059 20.0
2014-Jul-31 03:13 026 20.0
2014-Jul-31 03:03 026 20.0
2014-Jul-31 02:55 026 20.0
2014-Jul-31 02:43 026 20.0
2014-Jul-31 02:33 131 20.0
2014-Jul-31 02:23 131 20.0
2014-Jul-31 02:13 131 20.0
2014-Jul-31 02:03 131 20.0
2014-Jul-31 01:52 131 20.0
2014-Jul-31 01:42 131 20.0
2014-Jul-31 01:32 131 20.0
2014-Jul-31 01:22 131 20.0
2014-Jul-31 01:12 131 20.0
2014-Jul-31 01:02 131 20.0
2014-Jul-31 00:52 131 20.0
2014-Jul-31 00:42 131 20.0
2014-Jul-31 00:32 131 20.6
2014-Jul-31 00:22 131 20.6
2014-Jul-31 00:12 131 20.6
2014-Jul-31 00:02 131 20.6
2014-Jul-30 23:52 131 20.6
2014-Jul-30 23:42 131 20.6
2014-Jul-30 23:32 131 20.6
2014-Jul-30 23:22 131 20.6
2014-Jul-30 23:12 131 20.6
2014-Jul-30 23:02 131 20.6
2014-Jul-30 22:52 131 20.6
2014-Jul-30 22:42 131 20.6
2014-Jul-30 22:32 131 20.6
2014-Jul-30 22:22 131 21.1
2014-Jul-30 22:12 131 21.1
2014-Jul-30 22:02 131 21.1